Time,TemperatureF,DewpointF,PressureIn,WindDirection,WindDirectionDegrees,WindSpeedMPH,WindSpeedGustMPH,Humidity,HourlyPrecipIn,Conditions,Clouds,dailyrainin,SoftwareType,DateUTC
2013-07-09 00:03:00,69.2,66.1,30.01,ESE,107,0.0,1.0,90,0.00,OVC,,0.00,WeatherDisplay:10.37,2013-07-09 04:03:00,
2013-07-09 00:13:00,69.1,66.7,30.01,ESE,104,0.0,3.0,92,0.00,-RA,,0.00,WeatherDisplay:10.37,2013-07-09 04:13:00,
2013-07-09 00:23:00,68.7,66.3,30.01,ESE,117,1.0,3.0,92,0.00,-RA,,0.00,WeatherDisplay:10.37,2013-07-09 04:23:00,
2013-07-09 00:33:00,68.4,66.6,30.00,ESE,104,0.0,4.0,94,0.00,-RA,,0.00,WeatherDisplay:10.37,2013-07-09 04:33:00,
2013-07-09 00:43:00,68.1,66.3,30.00,ESE,115,0.0,3.0,94,0.00,-RA,,0.00,WeatherDisplay:10.37,2013-07-09 04:43:00,
2013-07-09 00:53:00,67.7,65.9,30.00,East,92,0.0,4.0,94,0.00,OVC,,0.00,WeatherDisplay:10.37,2013-07-09 04:53:00,
2013-07-09 01:03:00,67.6,66.1,30.00,ESE,103,0.0,0.0,95,0.00,OVC,,0.00,WeatherDisplay:10.37,2013-07-09 05:03:00,
2013-07-09 01:13:00,67.4,65.9,30.00,East,101,0.0,0.0,95,0.00,OVC,,0.00,WeatherDisplay:10.37,2013-07-09 05:13:00,
2013-07-09 01:23:00,67.4,65.9,30.01,ESE,102,0.0,1.0,95,0.00,OVC,,0.00,WeatherDisplay:10.37,2013-07-09 05:23:00,
2013-07-09 01:33:00,67.2,65.7,30.00,East,100,0.0,3.0,95,0.00,OVC,,0.00,WeatherDisplay:10.37,2013-07-09 05:33:00,
2013-07-09 01:43:00,67.2,65.7,30.00,East,101,0.0,2.0,95,0.00,OVC,,0.00,WeatherDisplay:10.37,2013-07-09 05:43:00,
2013-07-09 01:53:00,67.4,65.9,30.00,East,98,0.0,1.0,95,0.00,OVC,,0.00,WeatherDisplay:10.37,2013-07-09 05:53:00,
2013-07-09 02:03:00,67.2,65.7,30.00,ESE,114,0.0,2.0,95,0.00,OVC,,0.00,WeatherDisplay:10.37,2013-07-09 06:03:00,
2013-07-09 02:13:00,67.4,65.6,30.00,ESE,112,0.0,4.0,94,0.00,OVC,,0.00,WeatherDisplay:10.37,2013-07-09 06:13:00,
2013-07-09 02:23:00,67.4,65.6,30.00,East,98,0.0,4.0,94,0.00,OVC,,0.00,WeatherDisplay:10.37,2013-07-09 06:23:00,
2013-07-09 02:33:00,67.4,65.6,30.00,East,96,0.0,4.0,94,0.00,OVC,,0.00,WeatherDisplay:10.37,2013-07-09 06:33:00,
2013-07-09 02:43:00,67.2,65.7,30.00,East,99,0.0,4.0,95,0.00,OVC,,0.00,WeatherDisplay:10.37,2013-07-09 06:43:00,
2013-07-09 02:53:00,67.2,65.7,30.00,ESE,121,0.0,4.0,95,0.00,OVC,,0.00,WeatherDisplay:10.37,2013-07-09 06:53:00,
2013-07-09 03:03:00,67.2,65.7,30.00,ESE,102,0.0,4.0,95,0.00,OVC,,0.00,WeatherDisplay:10.37,2013-07-09 07:03:00,
2013-07-09 03:13:00,67.2,65.4,30.00,East,85,0.0,4.0,94,0.00,OVC,,0.00,WeatherDisplay:10.37,2013-07-09 07:13:00,
2013-07-09 03:23:00,67.1,65.3,30.00,East,86,0.0,4.0,94,0.00,OVC,,0.00,WeatherDisplay:10.37,2013-07-09 07:23:00,
2013-07-09 03:33:00,67.1,65.6,30.00,ESE,110,0.0,4.0,95,0.00,,,0.00,WeatherDisplay:10.37,2013-07-09 07:33:00,
2013-07-09 03:43:00,66.9,65.4,30.00,East,87,0.0,4.0,95,0.00,,,0.00,WeatherDisplay:10.37,2013-07-09 07:43:00,
2013-07-09 03:53:00,66.9,65.4,30.00,East,100,0.0,4.0,95,0.00,,,0.00,WeatherDisplay:10.37,2013-07-09 07:53:00,
2013-07-09 04:03:00,66.9,65.7,30.01,East,94,1.0,4.0,96,0.00,,,0.00,WeatherDisplay:10.37,2013-07-09 08:03:00,
2013-07-09 04:13:00,66.7,65.8,30.01,East,88,2.0,4.0,97,0.00,,,0.00,WeatherDisplay:10.37,2013-07-09 08:13:00,
2013-07-09 04:23:00,66.2,65.3,30.01,East,86,1.0,4.0,97,0.00,,,0.00,WeatherDisplay:10.37,2013-07-09 08:23:00,
2013-07-09 04:33:00,65.9,65.3,30.01,East,88,1.0,4.0,98,0.00,,,0.00,WeatherDisplay:10.37,2013-07-09 08:33:00,
2013-07-09 04:43:00,65.6,65.0,30.01,ESE,102,0.0,4.0,98,0.00,,,0.00,WeatherDisplay:10.37,2013-07-09 08:43:00,
2013-07-09 04:53:00,65.5,64.9,30.01,ESE,107,1.0,4.0,98,0.00,,,0.00,WeatherDisplay:10.37,2013-07-09 08:53:00,
2013-07-09 05:03:00,65.4,64.8,30.02,ENE,74,0.0,5.0,98,0.00,,,0.00,WeatherDisplay:10.37,2013-07-09 09:03:00,
2013-07-09 05:13:00,65.2,64.6,30.02,East,90,0.0,5.0,98,0.00,,,0.00,WeatherDisplay:10.37,2013-07-09 09:13:00,
2013-07-09 05:23:00,65.1,64.8,30.03,East,101,0.0,5.0,99,0.00,,,0.00,WeatherDisplay:10.37,2013-07-09 09:23:00,
2013-07-09 05:33:00,65.1,64.8,30.03,ENE,69,0.0,5.0,99,0.00,,,0.00,WeatherDisplay:10.37,2013-07-09 09:33:00,
2013-07-09 05:43:00,65.1,64.8,30.03,East,89,0.0,5.0,99,0.00,,,0.00,WeatherDisplay:10.37,2013-07-09 09:43:00,
2013-07-09 05:53:00,65.2,64.9,30.03,East,97,0.0,5.0,99,0.00,,,0.00,WeatherDisplay:10.37,2013-07-09 09:53:00,
2013-07-09 06:03:00,65.2,64.9,30.04,ENE,74,0.0,5.0,99,0.00,,,0.00,WeatherDisplay:10.37,2013-07-09 10:03:00,
2013-07-09 06:13:00,65.1,64.8,30.04,ENE,72,0.0,5.0,99,0.00,,,0.00,WeatherDisplay:10.37,2013-07-09 10:13:00,
2013-07-09 06:23:00,65.1,64.8,30.04,NE,54,0.0,5.0,99,0.00,,,0.00,WeatherDisplay:10.37,2013-07-09 10:23:00,
2013-07-09 06:33:00,65.2,64.9,30.05,NE,47,0.0,5.0,99,0.00,,,0.00,WeatherDisplay:10.37,2013-07-09 10:33:00,
2013-07-09 06:43:00,65.2,64.9,30.05,ESE,117,0.0,5.0,99,0.00,,,0.00,WeatherDisplay:10.37,2013-07-09 10:43:00,
2013-07-09 06:53:00,65.2,64.9,30.05,East,98,0.0,5.0,99,0.00,,,0.00,WeatherDisplay:10.37,2013-07-09 10:53:00,
2013-07-09 07:03:00,65.2,64.9,30.05,ESE,114,0.0,5.0,99,0.00,,,0.00,WeatherDisplay:10.37,2013-07-09 11:03:00,
2013-07-09 07:13:00,65.4,65.1,30.05,East,84,0.0,5.0,99,0.00,,,0.00,WeatherDisplay:10.37,2013-07-09 11:13:00,
2013-07-09 07:23:00,65.6,65.3,30.05,ESE,114,0.0,5.0,99,0.00,,,0.00,WeatherDisplay:10.37,2013-07-09 11:23:00,
2013-07-09 07:33:00,65.9,65.3,30.05,ESE,114,0.0,5.0,98,0.00,,,0.00,WeatherDisplay:10.37,2013-07-09 11:33:00,
2013-07-09 07:43:00,66.1,65.5,30.05,ESE,113,0.0,5.0,98,0.00,OVC,,0.00,WeatherDisplay:10.37,2013-07-09 11:43:00,
2013-07-09 07:53:00,65.9,65.0,30.06,East,99,0.0,5.0,97,0.00,OVC,,0.00,WeatherDisplay:10.37,2013-07-09 11:53:00,
2013-07-09 08:03:00,65.9,65.0,30.07,East,94,0.0,5.0,97,0.00,OVC,,0.00,WeatherDisplay:10.37,2013-07-09 12:03:00,
2013-07-09 08:13:00,65.9,65.0,30.07,East,98,0.0,5.0,97,0.00,OVC,,0.00,WeatherDisplay:10.37,2013-07-09 12:13:00,
2013-07-09 08:23:00,65.9,65.0,30.07,ENE,72,0.0,5.0,97,0.00,OVC,,0.00,WeatherDisplay:10.37,2013-07-09 12:23:00,
2013-07-09 08:33:00,66.1,65.2,30.06,East,92,0.0,5.0,97,0.00,,,0.00,WeatherDisplay:10.37,2013-07-09 12:33:00,
2013-07-09 08:43:00,66.2,65.0,30.06,East,97,0.0,5.0,96,0.00,,,0.00,WeatherDisplay:10.37,2013-07-09 12:43:00,
2013-07-09 08:53:00,66.2,65.0,30.06,ENE,72,0.0,5.0,96,0.00,,,0.00,WeatherDisplay:10.37,2013-07-09 12:53:00,
2013-07-09 09:03:00,66.6,65.1,30.06,SE,126,0.0,5.0,95,0.00,,,0.00,WeatherDisplay:10.37,2013-07-09 13:03:00,
2013-07-09 09:13:00,67.1,65.3,30.06,ESE,123,0.0,5.0,94,0.00,OVC,,0.00,WeatherDisplay:10.37,2013-07-09 13:13:00,
2013-07-09 09:23:00,67.2,65.1,30.06,ENE,70,0.0,5.0,93,0.00,OVC,,0.00,WeatherDisplay:10.37,2013-07-09 13:23:00,
2013-07-09 09:33:00,67.7,65.6,30.06,East,101,1.0,5.0,93,0.00,OVC,,0.00,WeatherDisplay:10.37,2013-07-09 13:33:00,
2013-07-09 09:43:00,68.6,65.9,30.06,ENE,78,0.0,5.0,91,0.00,OVC,,0.00,WeatherDisplay:10.37,2013-07-09 13:43:00,
2013-07-09 09:53:00,69.4,66.0,30.05,ESE,111,0.0,5.0,89,0.00,OVC,,0.00,WeatherDisplay:10.37,2013-07-09 13:53:00,
2013-07-09 10:03:00,69.6,65.6,30.05,East,90,2.0,5.0,87,0.00,OVC,,0.00,WeatherDisplay:10.37,2013-07-09 14:03:00,
2013-07-09 10:13:00,69.4,66.0,30.05,ESE,107,0.0,5.0,89,0.00,OVC,,0.00,WeatherDisplay:10.37,2013-07-09 14:13:00,
2013-07-09 10:23:00,69.1,65.7,30.05,ESE,102,0.0,5.0,89,0.00,OVC,,0.00,WeatherDisplay:10.37,2013-07-09 14:23:00,
2013-07-09 10:33:00,69.1,66.0,30.06,East,94,0.0,5.0,90,0.00,OVC,,0.00,WeatherDisplay:10.37,2013-07-09 14:33:00,
2013-07-09 10:43:00,69.7,66.0,30.06,ESE,115,0.0,5.0,88,0.00,OVC,,0.00,WeatherDisplay:10.37,2013-07-09 14:43:00,
2013-07-09 10:53:00,69.9,66.2,30.06,SE,133,0.0,5.0,88,0.00,OVC,,0.00,WeatherDisplay:10.37,2013-07-09 14:53:00,
2013-07-09 11:03:00,70.0,65.9,30.06,East,100,1.0,5.0,87,0.00,OVC,,0.00,WeatherDisplay:10.37,2013-07-09 15:03:00,
2013-07-09 11:13:00,69.9,65.9,30.06,ESE,109,0.0,5.0,87,0.00,OVC,,0.00,WeatherDisplay:10.37,2013-07-09 15:13:00,
2013-07-09 11:23:00,70.3,66.6,30.06,ESE,116,0.0,5.0,88,0.00,OVC,,0.00,WeatherDisplay:10.37,2013-07-09 15:23:00,
2013-07-09 11:33:00,70.8,66.4,30.06,East,85,0.0,5.0,86,0.00,OVC,,0.00,WeatherDisplay:10.37,2013-07-09 15:33:00,
2013-07-09 11:43:00,70.6,66.2,30.06,East,86,0.0,5.0,86,0.00,OVC,,0.00,WeatherDisplay:10.37,2013-07-09 15:43:00,
2013-07-09 11:53:00,70.4,66.3,30.06,ESE,122,0.0,5.0,87,0.00,OVC,,0.00,WeatherDisplay:10.37,2013-07-09 15:53:00,
2013-07-09 12:03:00,70.6,66.2,30.06,ESE,107,0.0,5.0,86,0.00,OVC,,0.00,WeatherDisplay:10.37,2013-07-09 16:03:00,
2013-07-09 12:13:00,70.6,66.9,30.06,East,86,0.0,5.0,88,0.00,OVC,,0.00,WeatherDisplay:10.37,2013-07-09 16:13:00,
2013-07-09 12:23:00,70.8,67.1,30.06,ESE,103,0.0,5.0,88,0.00,OVC,,0.00,WeatherDisplay:10.37,2013-07-09 16:23:00,
2013-07-09 12:33:00,70.9,66.5,30.06,ESE,102,0.0,5.0,86,0.00,OVC,,0.00,WeatherDisplay:10.37,2013-07-09 16:33:00,
2013-07-09 12:43:00,71.2,66.8,30.06,SE,134,0.0,5.0,86,0.00,OVC,,0.00,WeatherDisplay:10.37,2013-07-09 16:43:00,
2013-07-09 12:53:00,71.4,66.7,30.06,SE,145,0.0,5.0,85,0.00,OVC,,0.00,WeatherDisplay:10.37,2013-07-09 16:53:00,
2013-07-09 13:03:00,71.3,66.6,30.06,SE,145,0.0,5.0,85,0.00,OVC,,0.00,WeatherDisplay:10.37,2013-07-09 17:03:00,
2013-07-09 13:13:00,71.5,67.1,30.06,SE,145,0.0,5.0,86,0.00,OVC,,0.00,WeatherDisplay:10.37,2013-07-09 17:13:00,
2013-07-09 13:23:00,71.3,66.9,30.06,SE,134,0.0,5.0,86,0.00,OVC,,0.00,WeatherDisplay:10.37,2013-07-09 17:23:00,
2013-07-09 13:33:00,70.8,66.7,30.06,ESE,113,0.0,5.0,87,0.00,OVC,,0.00,WeatherDisplay:10.37,2013-07-09 17:33:00,
2013-07-09 13:43:00,70.9,66.8,30.06,ESE,113,0.0,5.0,87,0.00,OVC,,0.00,WeatherDisplay:10.37,2013-07-09 17:43:00,
2013-07-09 13:53:00,70.9,66.8,30.05,ESE,105,0.0,5.0,87,0.00,OVC,,0.00,WeatherDisplay:10.37,2013-07-09 17:53:00,
2013-07-09 14:03:00,70.8,67.1,30.05,ESE,114,0.0,5.0,88,0.00,OVC,,0.00,WeatherDisplay:10.37,2013-07-09 18:03:00,
2013-07-09 14:13:00,71.1,67.4,30.05,SE,130,0.0,5.0,88,0.00,OVC,,0.00,WeatherDisplay:10.37,2013-07-09 18:13:00,
2013-07-09 14:23:00,71.6,66.8,30.05,SE,134,0.0,5.0,85,0.00,OVC,,0.00,WeatherDisplay:10.37,2013-07-09 18:23:00,
2013-07-09 14:33:00,72.3,67.5,30.04,SE,136,0.0,5.0,85,0.00,OVC,,0.00,WeatherDisplay:10.37,2013-07-09 18:33:00,
2013-07-09 14:43:00,72.3,67.5,30.04,SE,129,0.0,5.0,85,0.00,OVC,,0.00,WeatherDisplay:10.37,2013-07-09 18:43:00,
2013-07-09 14:53:00,72.1,67.3,30.04,ESE,104,0.0,5.0,85,0.00,OVC,,0.00,WeatherDisplay:10.37,2013-07-09 18:53:00,
2013-07-09 15:03:00,72.5,68.1,30.04,ESE,106,0.0,5.0,86,0.00,OVC,,0.00,WeatherDisplay:10.37,2013-07-09 19:03:00,
2013-07-09 15:13:00,73.0,68.2,30.04,SE,138,1.0,5.0,85,0.00,OVC,,0.00,WeatherDisplay:10.37,2013-07-09 19:13:00,
2013-07-09 15:23:00,72.7,68.3,30.04,SE,125,1.0,6.0,86,0.00,OVC,,0.00,WeatherDisplay:10.37,2013-07-09 19:23:00,
2013-07-09 15:33:00,72.8,68.0,30.04,SE,142,0.0,5.0,85,0.00,OVC,,0.00,WeatherDisplay:10.37,2013-07-09 19:33:00,
2013-07-09 15:43:00,72.5,68.1,30.04,SE,146,0.0,7.0,86,0.00,OVC,,0.00,WeatherDisplay:10.37,2013-07-09 19:43:00,
2013-07-09 15:53:00,72.4,68.0,30.04,ESE,111,0.0,3.0,86,0.00,OVC,,0.00,WeatherDisplay:10.37,2013-07-09 19:53:00,
2013-07-09 16:03:00,72.7,68.3,30.05,ESE,112,0.0,1.0,86,0.00,OVC,,0.00,WeatherDisplay:10.37,2013-07-09 20:03:00,
2013-07-09 16:13:00,72.5,68.1,30.05,ESE,116,0.0,1.0,86,0.00,OVC,,0.00,WeatherDisplay:10.37,2013-07-09 20:13:00,
2013-07-09 16:23:00,72.1,68.0,30.04,East,90,1.0,4.0,87,0.00,OVC,,0.00,WeatherDisplay:10.37,2013-07-09 20:23:00,
2013-07-09 16:33:00,72.3,68.2,30.04,East,98,1.0,5.0,87,0.00,OVC,,0.00,WeatherDisplay:10.37,2013-07-09 20:33:00,
2013-07-09 16:43:00,72.3,67.9,30.04,ESE,109,1.0,4.0,86,0.00,OVC,,0.00,WeatherDisplay:10.37,2013-07-09 20:43:00,
2013-07-09 16:53:00,72.0,67.9,30.04,East,80,0.0,2.0,87,0.00,OVC,,0.00,WeatherDisplay:10.37,2013-07-09 20:53:00,
2013-07-09 17:03:00,72.3,68.2,30.02,ESE,103,1.0,5.0,87,0.00,OVC,,0.00,WeatherDisplay:10.37,2013-07-09 21:03:00,
2013-07-09 17:13:00,73.0,68.2,30.02,East,91,1.0,3.0,85,0.00,OVC,,0.00,WeatherDisplay:10.37,2013-07-09 21:13:00,
2013-07-09 17:23:00,72.8,68.0,30.01,ENE,72,1.0,4.0,85,0.00,OVC,,0.00,WeatherDisplay:10.37,2013-07-09 21:23:00,
2013-07-09 17:33:00,73.1,68.6,30.01,East,89,0.0,3.0,86,0.00,OVC,,0.00,WeatherDisplay:10.37,2013-07-09 21:33:00,
2013-07-09 17:43:00,73.4,68.6,30.01,ESE,106,1.0,5.0,85,0.00,OVC,,0.00,WeatherDisplay:10.37,2013-07-09 21:43:00,
2013-07-09 17:53:00,73.5,68.4,30.01,East,91,0.0,4.0,84,0.00,SCT,,0.00,WeatherDisplay:10.37,2013-07-09 21:53:00,
2013-07-09 18:03:00,73.5,68.7,30.02,SE,131,0.0,2.0,85,0.00,SCT,,0.00,WeatherDisplay:10.37,2013-07-09 22:03:00,
2013-07-09 18:13:00,73.5,68.7,30.02,SE,127,0.0,3.0,85,0.00,BKN,,0.00,WeatherDisplay:10.37,2013-07-09 22:13:00,
2013-07-09 18:23:00,73.8,68.6,30.01,SE,126,0.0,1.0,84,0.00,BKN,,0.00,WeatherDisplay:10.37,2013-07-09 22:23:00,
2013-07-09 18:33:00,73.5,68.4,30.02,ESE,103,0.0,2.0,84,0.00,BKN,,0.00,WeatherDisplay:10.37,2013-07-09 22:33:00,
2013-07-09 18:43:00,73.2,68.1,30.02,ESE,104,0.0,2.0,84,0.00,BKN,,0.00,WeatherDisplay:10.37,2013-07-09 22:43:00,
2013-07-09 18:53:00,73.4,68.6,30.02,East,95,0.0,2.0,85,0.00,BKN,,0.00,WeatherDisplay:10.37,2013-07-09 22:53:00,
2013-07-09 19:03:00,73.4,68.6,30.01,East,98,1.0,3.0,85,0.00,OVC,,0.00,WeatherDisplay:10.37,2013-07-09 23:03:00,
2013-07-09 19:13:00,72.8,68.4,30.01,ESE,105,1.0,4.0,86,0.00,OVC,,0.00,WeatherDisplay:10.37,2013-07-09 23:13:00,
2013-07-09 19:23:00,72.6,68.5,30.01,East,100,0.0,3.0,87,0.00,OVC,,0.00,WeatherDisplay:10.37,2013-07-09 23:23:00,
2013-07-09 19:33:00,72.3,68.2,30.01,ESE,114,0.0,3.0,87,0.00,OVC,,0.00,WeatherDisplay:10.37,2013-07-09 23:33:00,
2013-07-09 19:43:00,71.9,68.1,30.01,ESE,113,1.0,3.0,88,0.00,OVC,,0.00,WeatherDisplay:10.37,2013-07-09 23:43:00,
2013-07-09 19:53:00,71.5,68.1,30.01,East,92,0.0,5.0,89,0.00,OVC,,0.00,WeatherDisplay:10.37,2013-07-09 23:53:00,
2013-07-09 20:03:00,71.1,68.0,30.02,ESE,104,0.0,5.0,90,0.00,OVC,,0.00,WeatherDisplay:10.37,2013-07-10 00:03:00,
2013-07-09 20:13:00,70.9,68.1,30.02,East,100,0.0,2.0,91,0.00,OVC,,0.00,WeatherDisplay:10.37,2013-07-10 00:13:00,
2013-07-09 20:23:00,70.8,68.0,30.03,East,87,0.0,5.0,91,0.00,OVC,,0.00,WeatherDisplay:10.37,2013-07-10 00:23:00,
2013-07-09 20:33:00,70.6,67.8,30.03,ESE,107,0.0,4.0,91,0.00,OVC,,0.00,WeatherDisplay:10.37,2013-07-10 00:33:00,
2013-07-09 20:43:00,70.4,67.6,30.03,ESE,112,0.0,3.0,91,0.00,OVC,,0.00,WeatherDisplay:10.37,2013-07-10 00:43:00,
2013-07-09 20:53:00,70.4,67.6,30.02,ESE,115,0.0,2.0,91,0.00,OVC,,0.00,WeatherDisplay:10.37,2013-07-10 00:53:00,
2013-07-09 21:03:00,70.3,67.9,30.03,ESE,106,1.0,4.0,92,0.00,OVC,,0.00,WeatherDisplay:10.37,2013-07-10 01:03:00,
2013-07-09 21:13:00,70.0,67.6,30.03,ESE,120,0.0,5.0,92,0.00,OVC,,0.00,WeatherDisplay:10.37,2013-07-10 01:13:00,
2013-07-09 21:23:00,69.7,67.3,30.04,ESE,104,1.0,5.0,92,0.00,OVC,,0.00,WeatherDisplay:10.37,2013-07-10 01:23:00,
2013-07-09 21:33:00,69.4,67.0,30.04,ESE,113,2.0,5.0,92,0.00,OVC,,0.00,WeatherDisplay:10.37,2013-07-10 01:33:00,
2013-07-09 21:43:00,69.1,66.7,30.04,SE,138,0.0,5.0,92,0.00,OVC,,0.00,WeatherDisplay:10.37,2013-07-10 01:43:00,
2013-07-09 21:53:00,68.7,66.3,30.04,SE,132,0.0,4.0,92,0.00,OVC,,0.00,WeatherDisplay:10.37,2013-07-10 01:53:00,
2013-07-09 22:03:00,68.4,66.0,30.04,East,95,0.0,3.0,92,0.00,OVC,,0.00,WeatherDisplay:10.37,2013-07-10 02:03:00,
2013-07-09 22:13:00,68.2,66.1,30.04,East,101,0.0,4.0,93,0.00,OVC,,0.00,WeatherDisplay:10.37,2013-07-10 02:13:00,
2013-07-09 22:23:00,67.9,65.8,30.04,East,94,1.0,5.0,93,0.00,OVC,,0.00,WeatherDisplay:10.37,2013-07-10 02:23:00,
2013-07-09 22:33:00,67.6,65.5,30.04,ESE,114,0.0,5.0,93,0.00,OVC,,0.00,WeatherDisplay:10.37,2013-07-10 02:33:00,
2013-07-09 22:43:00,67.4,65.3,30.04,ESE,113,0.0,1.0,93,0.00,OVC,,0.00,WeatherDisplay:10.37,2013-07-10 02:43:00,
2013-07-09 22:53:00,67.2,65.1,30.04,ESE,112,1.0,4.0,93,0.00,OVC,,0.00,WeatherDisplay:10.37,2013-07-10 02:53:00,
2013-07-09 23:03:00,67.0,65.0,30.04,ESE,105,1.0,3.0,93,0.00,OVC,,0.00,WeatherDisplay:10.37,2013-07-10 03:03:00,
2013-07-09 23:13:00,66.8,64.7,30.04,ESE,111,0.0,4.0,93,0.00,OVC,,0.00,WeatherDisplay:10.37,2013-07-10 03:13:00,
2013-07-09 23:23:00,66.9,64.8,30.04,ESE,119,0.0,2.0,93,0.00,OVC,,0.00,WeatherDisplay:10.37,2013-07-10 03:23:00,
2013-07-09 23:33:00,66.9,64.8,30.04,East,100,0.0,1.0,93,0.00,OVC,,0.00,WeatherDisplay:10.37,2013-07-10 03:33:00,
2013-07-09 23:43:00,66.9,64.8,30.04,ESE,113,0.0,0.0,93,0.00,OVC,,0.00,WeatherDisplay:10.37,2013-07-10 03:43:00,
2013-07-09 23:53:00,66.9,64.8,30.03,ESE,119,0.0,0.0,93,0.00,OVC,,0.00,WeatherDisplay:10.37,2013-07-10 03:53:00,